#timestamp,LO_Frequency,Hit,StdDev 
1580886015.5,286047003.8,N
1580886035.3,286047003.7,N
1580886055.1,286047002.1,N
1580886075.9,286047001.8,N
1580886095.7,286047001.4,N
1580886115.6,286047003.5,N
1580886135.4,286047004.1,N
1580886155.2,286047005.4,N
1580886175.1,286047003.7,N
1580886176.0,286047003.7,N
1580886195.8,286047004.0,N
1580886215.6,286047002.1,N
1580886235.5,286047002.2,N
1580886255.3,286047001.1,N
1580886275.2,286047001.2,N
1580886295.9,286046998.4,N
1580886315.7,286047000.5,N
1580886335.6,286047001.1,N
1580886355.4,286047000.4,N
1580886375.3,286047002.8,N
1580886395.1,286047002.3,N
1580886396.0,286047002.3,N
1580886415.8,286047001.6,N
1580886435.7,286047001.8,N
1580886455.5,286047001.6,N
1580886475.3,286047002.7,N
1580886495.2,286047000.6,N
1580886515.0,286047002.5,N
1580886515.9,286047002.5,N
1580886535.8,286047000.3,N
1580886555.6,286046999.7,N
1580886575.4,286047000.8,N
1580886595.3,286047001.0,N
1580886615.1,286046999.8,N
1580886635.9,286046999.7,N
1580886655.7,286047000.6,N
1580886675.5,286047002.8,N
1580886695.4,286047004.0,N
1580886715.2,286047001.7,N
1580886735.0,286047001.7,N
1580886736.0,286047001.7,N
1580886755.8,286047004.1,Y
1580886775.6,286046999.8,P
1580886795.5,286047002.3,N
1580886815.3,286046999.7,N
1580886835.1,286047002.3,N
1580886855.9,286047002.6,N
1580886875.7,286047001.6,N
1580886895.6,286047003.0,N
1580886915.4,286047001.4,N
1580886935.2,286047000.1,N
1580886955.1,286047000.1,N
1580886956.0,286047000.1,N
1580886975.8,286047002.0,N
1580886995.7,286046999.8,N
1580887015.5,286047000.3,N
1580887035.3,286047002.4,N
1580887055.2,286047000.5,N
1580887075.9,286047000.8,N
1580887095.7,286047001.2,N
1580887115.6,286046998.2,N
1580887135.4,286047000.3,N
1580887155.3,286047000.6,N
1580887175.1,286046999.0,N
1580887176.0,286046999.0,N
1580887195.8,286046996.5,N
1580887215.7,286046998.8,N
1580887235.5,286046999.6,N
1580887255.3,286047000.7,N
1580887275.2,286047002.1,N
1580887295.0,286047002.8,N
1580887295.9,286047002.8,N
1580887315.8,286047000.1,N
1580887335.6,286047001.0,N
1580887355.4,286047000.2,N
1580887375.3,286047000.2,N
1580887395.1,286046999.7,N
1580887415.9,286047000.9,N
1580887435.7,286046998.8,N
1580887455.5,286046999.4,N
1580887475.4,286046999.1,N
1580887495.2,286046998.9,N
1580887515.0,286047000.7,N
1580887515.9,286047000.7,N
1580887535.8,286046999.9,N
1580887555.6,286047002.2,N
1580887575.5,286047003.5,N
1580887595.3,286047005.1,Y
1580887615.1,286047005.6,P
1580887635.9,286047007.2,N
1580887655.7,286047008.7,N
1580887675.5,286047009.2,N
1580887695.4,286047009.1,N
1580887715.2,286047009.9,Y
1580887735.1,286047003.9,P
1580887736.0,286047003.9,N
1580887755.8,286047003.0,N
1580887775.6,286047002.9,N
1580887795.5,286047004.3,Y
1580887815.3,286046997.4,P
1580887835.2,286046997.9,N
1580887855.9,286046997.7,N
1580887875.7,286046996.6,N
1580887895.6,286046996.5,N
1580887915.4,286046995.5,N
1580887935.2,286046995.5,N
1580887955.1,286046996.2,N
1580887956.0,286046996.2,N
1580887975.8,286046995.1,N
1580887995.7,286046994.2,N
1580888015.5,286046991.9,Y
1580888035.3,286046994.1,P
1580888055.2,286046996.2,N
1580888075.0,286046993.8,P
1580888075.9,286046993.8,Y
1580888125.8,286046998.6,E
1580888135.7,286047000.9,N
1580888155.5,286047000.4,P
1580888175.4,286047002.1,P
1580888195.2,286047000.9,N
1580888215.1,286047000.4,N
1580888216.0,286047000.4,N
1580888235.8,286047004.4,Y
1580888255.6,286046998.1,P
1580888275.5,286046997.0,N
1580888295.3,286046996.5,N
1580888315.2,286046996.6,N
1580888335.9,286046997.1,N
1580888355.7,286046997.4,N
1580888375.6,286046999.6,N
1580888395.4,286046998.6,N
1580888415.3,286046998.8,N
1580888435.1,286046998.2,N
1580888436.0,286046998.2,N
1580888455.8,286046999.4,N
1580888475.7,286046997.2,N
1580888495.5,286046996.5,N
1580888515.3,286046996.9,N
1580888535.2,286046998.1,N
1580888555.0,286046999.5,N
1580888555.9,286046999.5,N
1580888575.8,286046999.1,N
1580888595.6,286046998.8,N
1580888615.4,286047001.2,N
1580888635.3,286046998.3,N
1580888655.1,286046999.0,N
1580888675.9,286046999.0,N
1580888695.7,286046997.1,N
1580888715.5,286046997.2,N
1580888735.4,286046996.6,N
1580888755.2,286046995.3,Y
1580888775.0,286046999.2,P
1580888775.9,286046999.2,N
1580888795.8,286046998.2,P
1580888815.6,286046998.6,N
1580888835.5,286046999.3,N
1580888855.3,286046998.3,Y
1580888875.1,286046998.9,P
1580888895.9,286046998.4,P
1580888915.7,286046999.3,P
1580888935.5,286046999.2,N
1580888955.4,286046997.2,Y
1580888975.2,286046998.2,P
1580888995.1,286047000.8,N
1580888996.0,286047000.8,N
1580889015.8,286046998.3,N
1580889035.6,286046998.2,N
1580889055.5,286047011.9,Y
1580889075.3,286047004.3,P
1580889095.2,286047003.4,N
1580889115.9,286047001.5,N
1580889135.7,286047002.8,N
1580889155.6,286047002.8,N
1580889175.4,286047002.2,N
1580889195.2,286047002.2,N
1580889215.1,286047001.6,N
1580889216.0,286047001.6,N
1580889235.8,286047000.4,N
1580889255.7,286047004.0,N
1580889275.5,286047001.3,N
1580889295.3,286047003.7,N
1580889315.2,286047004.2,Y
1580889335.0,286047000.9,P
1580889335.9,286047000.9,N
1580889355.7,286046998.3,N
1580889375.6,286047001.2,N
1580889395.4,286046999.3,N
1580889415.3,286046999.2,N
1580889435.1,286046999.3,N
1580889436.0,286046999.3,N
1580889455.8,286046998.8,N
1580889475.7,286046999.9,N
1580889495.5,286047002.7,N
1580889515.3,286047002.8,N
1580889535.2,286046999.9,N
1580889555.0,286047001.5,N
1580889555.9,286047001.5,N
1580889575.8,286047002.3,N
1580889595.6,286046999.9,N
